Temperature
22 18 18 19 19 20 21 21 21 21 22 21 20 19 19 19 18 18 17 17 17 16 17 17 17 17 17 16 16 16 16 16 16 15 15 15 15 14 14 14 14 14 14 14
19 18 20 21 21 21 21 21 20 21 22 22 20 19 19 18 18 18 17 17 16 16 16 16 16 16 17 16 16 16 16 15 15 15 15 15 14 14 14 14 13 14 14 13
19 20 21 22 21 21 21 20 21 21 21 21 20 19 18 18 18 18 17 17 16 16 16 16 16 16 16 16 16 15 15 15 15 14 14 14 14 13 13 13 13 13 13 13
19 21 22 22 22 22 21 22 22 22 20 19 20 18 18 17 17 17 17 16 16 16 16 16 16 16 16 16 15 15 15 14 14 14 14 14 13 13 13 13 12 12 12 12
20 22 22 22 23 23 22 22 22 21 19 18 19 18 17 17 17 17 16 16 16 16 16 16 16 15 15 15 15 15 14 14 14 13 13 13 13 13 12 12 12 12 12 12
21 22 22 23 24 23 23 22 20 18 17 18 18 18 17 17 17 17 17 16 16 16 16 15 15 15 15 14 14 14 14 13 13 13 13 13 13 12 12 12 12 12 12 11
21 22 23 24 23 22 21 19 18 18 17 17 18 18 17 18 18 17 17 16 16 16 15 15 15 15 14 14 14 13 13 13 13 13 12 12 12 12 12 12 11 11 11 11
20 20 22 23 22 21 21 19 17 18 17 17 18 18 17 18 18 17 17 16 16 15 15 15 15 15 14 14 14 13 13 13 12 12 12 12 12 12 11 11 11 11 11 10
20 20 22 23 23 22 20 19 18 17 17 17 17 17 17 17 17 16 16 15 15 15 15 14 14 14 14 14 13 13 13 12 12 12 12 11 11 11 11 11 11 10 10 10
20 20 22 23 23 22 21 19 16 17 17 17 17 17 16 17 16 16 15 14 14 14 14 14 14 14 14 14 13 13 13 12 12 11 11 11 11 11 11 11 10 10 10 10
20 20 21 21 21 21 21 20 17 16 16 16 16 16 17 16 16 15 14 14 14 14 14 14 14 14 13 13 13 13 12 12 12 11 11 11 11 10 10 10 10 10 9 9
20 18 18 20 21 22 21 20 18 17 17 16 16 16 17 16 15 15 14 14 14 14 14 13 13 13 13 13 12 12 12 12 11 11 11 10 10 10 10 10 9 9 9 9
20 17 18 19 19 20 21 21 19 16 15 15 15 16 16 15 15 15 14 14 13 13 13 13 13 13 13 12 12 12 11 11 11 11 10 10 10 10 9 9 9 9 9 9
19 17 17 18 18 19 20 21 20 17 16 16 16 16 16 15 14 14 14 13 13 13 12 13 12 12 12 12 12 11 11 11 11 10 10 10 10 9 9 9 9 9 9 9
18 18 19 19 20 20 21 21 20 19 17 17 17 16 15 14 14 14 13 13 13 12 12 12 12 12 12 11 11 11 11 10 10 10 10 10 9 9 9 9 9 9 8 8
17 18 19 19 20 21 20 20 20 20 19 18 17 16 15 15 14 14 13 13 12 12 12 12 12 12 12 11 11 11 11 10 10 10 10 9 9 9 9 9 9 9 8 8
17 17 17 17 19 19 18 19 19 18 18 17 16 15 14 13 13 13 13 13 12 12 12 12 11 12 11 11 11 11 10 10 10 10 9 9 9 9 9 9 9 8 8 8
16 16 15 16 17 18 18 19 19 18 17 17 16 15 14 14 14 14 14 13 13 12 12 12 11 11 11 11 11 10 10 10 10 10 9 9 9 9 9 9 8 8 8 8
16 16 15 15 16 17 18 19 18 17 16 16 15 14 14 14 13 13 13 14 13 13 12 12 12 11 11 11 10 10 10 10 10 9 9 9 9 9 9 8 8 8 8 8
16 15 15 15 16 17 17 19 19 17 15 16 15 14 14 14 12 12 13 13 13 13 12 12 11 11 11 10 10 10 10 10 9 9 9 9 9 9 9 9 8 8 8 8
17 16 15 15 15 16 17 18 19 17 15 16 15 15 14 13 13 14 13 13 13 12 12 11 11 11 11 10 10 10 10 10 9 9 9 9 9 9 9 9 9 8 8 8
16 16 15 14 15 15 17 18 17 15 16 16 15 15 15 14 14 13 13 12 12 12 11 11 11 10 10 10 10 10 10 10 9 9 9 9 9 9 9 9 9 9 9 8
16 15 14 14 14 16 17 17 18 18 17 16 16 15 15 14 13 13 12 12 12 11 11 11 10 10 10 10 10 10 10 9 9 9 9 9 9 9 9 9 9 9 9 9
17 16 14 14 15 16 17 18 17 18 17 17 16 15 14 14 13 12 12 12 11 11 11 10 10 10 10 10 10 10 9 9 9 9 9 9 9 9 9 9 9 9 9 9
16 16 14 14 15 16 17 17 17 17 17 16 15 15 14 14 13 12 12 11 11 11 10 10 10 10 10 10 9 9 9 9 9 9 9 9 9 9 9 9 9 9 9 9
16 15 14 14 16 15 16 17 17 17 16 15 15 14 14 14 13 12 12 11 11 11 10 10 10 10 10 10 9 9 9 9 9 9 9 9 9 9 9 9 9 10 10 10
Wind_Speed
2 2 4 8 7 7 4 3 4 5 3 2 6 8 10 10 11 11 10 10 9 9 7 7 7 7 7 7 8 7 7 5 5 4 3 4 3 2 2 4 5 6 6 6
4 5 11 7 5 4 3 2 4 4 2 1 4 4 6 9 10 12 13 12 11 9 8 8 7 6 6 6 6 7 6 5 4 3 3 3 3 3 2 3 5 6 6 6
8 9 7 6 6 5 5 5 5 4 2 3 5 1 3 4 6 9 10 12 12 13 12 10 9 7 7 6 6 6 5 5 5 4 4 4 4 3 3 3 2 4 5 6
7 10 8 8 8 6 6 8 6 3 1 1 2 2 5 7 6 8 10 10 12 12 12 10 10 8 7 6 6 6 5 5 5 5 5 5 4 3 1 1 1 3 6 6
7 5 5 6 8 6 7 7 4 4 3 1 1 2 5 4 5 8 10 11 11 12 12 11 10 9 8 7 7 6 5 5 5 5 5 5 4 3 2 3 4 3 4 6
9 6 5 6 5 4 3 4 5 5 4 1 4 4 5 4 8 9 10 11 11 12 11 9 8 8 7 7 6 6 6 4 4 5 5 5 6 5 5 4 3 2 2 3
6 6 4 2 1 3 4 6 4 4 3 4 3 2 5 4 6 8 10 11 11 12 11 11 11 10 9 8 7 6 7 5 4 5 5 5 6 6 5 4 2 2 2 2
2 5 3 1 4 4 3 8 7 5 4 3 2 2 5 3 1 3 6 8 11 11 11 12 11 10 10 10 9 8 7 6 4 5 5 5 5 4 3 3 3 2 1 1
4 5 4 2 2 6 4 3 7 7 2 0 3 3 5 4 4 5 6 9 10 10 10 11 10 9 9 9 8 8 8 6 5 5 5 5 5 5 4 3 2 1 0 1
5 3 4 3 3 3 5 6 6 5 3 2 2 3 3 2 2 4 7 8 9 9 9 9 9 8 8 8 7 7 7 7 5 5 5 5 4 4 3 3 2 1 1 2
4 2 4 2 1 2 2 2 5 4 5 5 3 5 4 7 6 7 8 8 9 9 10 9 8 7 8 7 7 7 7 6 6 6 5 5 4 3 3 2 1 1 1 2
3 4 2 5 5 4 5 5 6 5 4 5 4 5 2 5 5 7 8 8 8 9 9 8 8 7 7 7 7 7 6 6 6 6 5 5 4 3 2 1 1 1 1 2
4 5 2 6 6 4 1 1 4 6 4 4 4 5 1 4 4 6 8 9 8 8 9 8 7 7 7 6 6 6 6 6 6 6 6 5 3 3 2 1 1 1 1 2
5 4 5 6 6 3 3 3 2 6 4 4 6 5 3 4 5 6 8 9 9 8 8 8 7 6 6 6 6 5 5 5 6 6 6 4 3 3 2 1 1 1 1 1
5 3 2 4 4 2 3 4 2 3 6 6 6 7 8 8 8 9 9 9 9 9 8 8 8 7 7 7 6 5 5 5 6 6 5 4 3 2 2 2 1 1 1 2
4 4 1 3 4 3 3 3 1 2 3 5 6 4 4 7 7 8 9 9 9 9 9 8 8 9 9 9 7 6 5 6 6 6 4 4 3 2 2 1 1 1 2 2
3 4 3 2 5 4 3 3 2 3 3 6 5 6 8 8 9 10 10 10 10 10 9 9 8 9 9 8 8 7 6 6 6 6 5 4 4 3 2 1 2 1 1 1
6 4 3 0 4 1 4 2 4 6 2 2 5 8 11 10 8 7 7 9 9 9 9 8 7 7 7 7 7 7 7 6 6 5 4 4 4 3 2 2 1 0 0 1
6 6 4 3 1 2 3 3 1 5 1 1 8 10 8 9 6 2 4 7 9 9 8 8 7 7 7 7 7 7 6 6 6 5 4 4 4 3 2 1 1 1 0 0
5 6 5 3 3 4 5 3 1 6 1 1 7 10 9 9 5 4 5 7 8 8 8 8 7 7 7 6 7 7 6 6 6 5 5 4 3 3 3 2 2 1 1 1
3 3 3 3 3 4 5 3 1 3 5 4 7 8 8 5 5 6 8 7 8 8 8 8 8 7 7 7 7 7 6 5 5 4 4 4 3 3 3 2 2 1 1 1
4 4 3 4 3 6 4 1 4 6 5 7 7 7 7 6 7 8 9 9 9 8 8 8 7 6 5 6 7 7 5 5 4 4 4 3 3 3 2 2 1 1 1 1
3 6 6 6 6 5 2 4 4 6 8 7 7 8 10 9 8 9 9 9 9 8 7 6 7 6 4 5 7 7 5 5 5 4 3 2 1 1 2 2 2 1 1 1
1 3 4 2 1 2 3 4 4 7 8 8 9 10 10 10 10 9 9 8 8 6 7 6 7 7 5 5 5 6 5 5 5 4 3 2 1 1 1 1 2 2 2 2
4 3 3 2 3 3 2 5 7 8 10 10 9 9 10 11 10 9 8 8 7 6 5 6 7 7 6 5 5 5 5 5 5 4 3 2 2 2 2 2 2 3 4 5
3 6 7 6 8 7 5 6 9 11 10 11 11 9 9 10 10 9 8 7 7 7 6 6 6 6 6 6 5 5 5 6 5 4 3 2 2 2 2 2 3 5 6 8
Wind_Direction
288 86 241 235 211 207 221 235 258 267 261 155 166 168 176 170 157 158 157 158 155 158 153 147 151 143 129 123 120 121 121 124 120 117 116 109 103 89 74 75 69 62 61 63
359 263 240 237 238 246 244 246 267 298 290 160 139 160 179 172 173 172 166 160 157 153 149 154 155 148 138 136 134 131 132 131 131 129 125 123 121 105 100 67 54 55 57 54
219 242 239 227 237 235 230 205 218 235 339 54 105 104 190 185 167 170 167 159 155 160 160 165 158 148 140 136 142 141 133 126 126 120 106 95 80 67 54 43 33 34 49 53
245 246 239 230 231 198 232 224 203 197 96 292 113 202 232 193 179 174 170 166 166 167 162 162 159 155 151 144 131 124 121 114 115 116 120 122 123 121 132 107 54 33 40 45
261 248 232 230 228 196 214 207 193 191 158 36 354 143 264 172 194 198 181 177 175 169 162 162 163 158 149 140 130 123 117 108 104 106 117 118 113 115 107 84 67 47 32 37
256 255 220 221 233 193 153 82 42 52 71 316 251 185 254 209 204 197 183 180 176 167 161 156 153 143 137 132 129 126 121 114 109 106 104 111 114 110 105 89 73 45 24 16
297 293 262 218 304 349 89 93 40 9 10 258 264 196 250 250 196 184 183 181 174 165 159 157 154 150 150 146 140 134 126 117 108 104 102 108 113 113 114 112 99 70 34 11
246 289 279 210 182 184 169 134 152 188 217 273 312 241 270 283 169 144 162 160 155 158 161 162 160 157 159 153 148 143 134 126 119 110 103 102 104 105 105 105 110 99 91 304
198 258 292 287 162 141 139 159 165 141 138 301 285 293 309 351 66 109 128 136 144 151 154 158 158 158 157 152 150 149 141 130 124 118 109 98 95 97 98 97 99 98 4 329
167 247 295 294 54 50 142 147 100 113 148 233 272 265 253 263 217 139 141 149 146 147 146 145 149 153 152 148 143 138 136 132 124 118 114 111 105 103 108 106 92 53 354 359
143 167 304 2 130 202 92 103 115 126 153 165 223 256 222 197 190 173 165 152 149 151 149 146 144 146 142 137 134 131 132 126 124 122 119 116 111 105 105 99 87 61 7 357
149 127 249 261 251 196 164 175 152 154 210 174 176 252 258 178 175 159 150 148 148 147 144 141 137 133 136 141 141 139 140 138 137 136 131 131 126 115 106 90 49 40 18 351
122 107 53 343 342 7 49 198 156 140 130 158 170 244 200 138 139 145 145 145 144 141 141 136 135 138 143 141 140 142 144 145 142 138 137 134 129 126 124 98 45 27 26 20
108 104 154 198 232 247 290 304 169 129 144 185 198 198 202 171 153 142 143 145 143 145 145 145 145 148 150 147 146 148 148 142 141 140 141 144 153 156 144 124 81 45 39 40
98 125 192 232 255 258 272 291 246 163 172 181 196 191 199 186 167 156 149 148 146 146 146 152 153 153 150 144 147 149 148 146 147 145 146 162 161 143 126 114 96 54 34 42
95 134 96 318 314 332 338 337 61 120 139 148 151 194 195 162 142 145 149 153 155 157 159 160 158 156 153 151 153 150 153 158 152 152 158 158 146 140 132 127 99 55 36 29
127 121 107 283 314 0 337 313 117 117 138 153 181 191 151 145 157 165 167 167 169 166 164 163 170 165 161 162 160 158 161 156 151 154 157 150 149 141 133 113 94 68 28 43
138 122 128 146 24 290 267 321 120 125 124 141 143 151 157 158 158 159 162 165 166 165 162 160 167 160 158 156 153 151 151 151 152 155 157 152 149 143 137 115 108 355 356 29
145 139 127 125 152 265 300 314 150 128 87 145 138 140 141 131 110 118 175 164 166 164 160 162 160 151 148 151 151 146 153 153 154 158 161 157 152 159 163 167 225 224 164 276
88 110 122 132 154 222 241 273 115 102 66 234 143 148 149 140 148 202 179 154 146 144 147 147 143 137 143 151 146 145 152 153 162 169 169 169 166 171 183 202 217 225 199 239
87 76 130 159 191 255 257 268 78 130 219 188 151 150 149 161 182 161 142 137 134 135 138 139 138 143 152 149 143 146 150 165 176 171 166 170 176 186 197 207 218 214 230 288
162 156 171 153 179 246 259 121 158 189 162 138 136 143 133 125 120 124 129 130 130 129 130 135 141 148 156 150 143 145 161 172 164 159 162 176 192 206 190 185 235 237 204 275
171 181 168 176 206 232 176 151 168 148 132 135 137 142 133 124 126 128 131 132 133 137 139 141 146 148 155 157 149 154 172 164 153 149 159 181 201 221 201 184 211 244 260 244
267 124 113 110 193 161 124 113 122 130 131 135 136 137 134 133 137 137 140 139 139 143 145 144 145 151 160 163 158 164 169 159 151 158 178 194 189 259 279 239 213 218 235 240
204 120 110 128 162 103 92 132 129 117 119 122 124 127 134 133 137 140 143 145 148 149 147 146 151 157 164 163 163 168 167 157 156 173 192 203 212 222 268 274 246 235 238 225
215 167 161 197 197 167 180 161 132 127 132 136 129 125 131 138 141 139 145 149 151 153 150 151 156 160 166 166 170 178 175 167 166 179 200 214 230 245 244 262 303 296 265 266
Height
1506 1512 1516 1512 1510 1512 1513 1516 1519 1514 1507 1511 1515 1518 1520 1521 1522 1524 1527 1529 1532 1534 1537 1538 1540 1541 1542 1543 1544 1545 1546 1548 1548 1549 1551 1552 1552 1553 1553 1553 1553 1553 1552 1551
1512 1513 1505 1503 1505 1508 1511 1515 1516 1512 1507 1509 1517 1520 1519 1521 1521 1522 1524 1527 1530 1533 1535 1537 1537 1540 1541 1542 1543 1544 1545 1546 1547 1549 1550 1550 1551 1551 1552 1552 1552 1551 1551 1550
1513 1506 1500 1503 1506 1509 1510 1514 1514 1514 1510 1511 1517 1526 1524 1521 1521 1523 1524 1525 1527 1530 1532 1534 1536 1538 1539 1540 1542 1544 1544 1545 1546 1547 1548 1549 1550 1550 1551 1551 1550 1550 1550 1549
1506 1499 1499 1501 1503 1504 1512 1502 1504 1508 1517 1525 1521 1538 1528 1522 1522 1522 1523 1524 1525 1527 1529 1531 1534 1536 1538 1539 1541 1542 1543 1545 1546 1547 1548 1548 1548 1548 1549 1550 1549 1549 1549 1548
1503 1495 1497 1499 1496 1497 1501 1497 1501 1507 1517 1526 1525 1534 1531 1522 1523 1521 1521 1522 1523 1524 1527 1529 1532 1535 1537 1539 1540 1541 1543 1544 1545 1546 1547 1547 1548 1548 1548 1549 1548 1548 1548 1547
1495 1490 1491 1491 1489 1490 1494 1501 1507 1514 1524 1537 1528 1532 1531 1522 1517 1516 1518 1519 1520 1523 1525 1528 1531 1534 1536 1538 1540 1541 1543 1544 1544 1545 1546 1546 1546 1547 1547 1547 1548 1547 1546 1545
1498 1491 1487 1487 1492 1493 1497 1515 1533 1537 1544 1540 1525 1528 1527 1513 1509 1511 1513 1515 1517 1520 1523 1526 1529 1532 1534 1536 1538 1540 1541 1543 1543 1544 1545 1546 1546 1546 1546 1546 1546 1546 1545 1544
1508 1506 1490 1486 1491 1497 1500 1510 1533 1544 1545 1539 1526 1528 1520 1509 1507 1508 1510 1512 1515 1519 1522 1524 1527 1530 1532 1535 1537 1539 1541 1542 1543 1544 1544 1545 1546 1546 1546 1545 1545 1545 1544 1543
1505 1503 1487 1484 1484 1489 1501 1509 1511 1527 1532 1540 1534 1525 1515 1506 1507 1509 1511 1512 1514 1518 1521 1524 1527 1530 1533 1535 1536 1538 1540 1542 1543 1544 1544 1545 1545 1545 1545 1545 1544 1544 1543 1543
1494 1501 1490 1484 1484 1487 1492 1499 1515 1526 1538 1544 1535 1529 1525 1513 1510 1510 1512 1513 1515 1519 1521 1524 1527 1530 1532 1534 1536 1538 1540 1541 1542 1543 1544 1544 1544 1545 1545 1544 1544 1543 1542 1542
1489 1499 1496 1490 1492 1494 1496 1501 1510 1521 1526 1537 1542 1533 1511 1510 1510 1510 1512 1513 1515 1518 1520 1524 1527 1530 1532 1534 1536 1538 1539 1540 1542 1543 1543 1544 1544 1544 1544 1544 1543 1542 1541 1541
1488 1499 1505 1496 1486 1484 1489 1496 1506 1520 1524 1525 1532 1530 1506 1506 1508 1510 1512 1515 1517 1518 1521 1524 1527 1529 1532 1534 1536 1537 1538 1540 1541 1542 1543 1543 1543 1543 1543 1543 1542 1542 1541 1540
1487 1501 1513 1509 1502 1492 1491 1491 1497 1506 1517 1525 1530 1526 1507 1507 1509 1510 1512 1515 1517 1519 1522 1524 1527 1529 1531 1534 1536 1537 1538 1539 1541 1542 1542 1542 1543 1543 1543 1542 1542 1541 1540 1540
1483 1499 1509 1514 1508 1498 1495 1492 1492 1503 1517 1520 1517 1514 1510 1509 1509 1511 1513 1515 1517 1519 1522 1524 1527 1529 1531 1534 1535 1537 1538 1539 1540 1541 1542 1542 1542 1542 1542 1542 1541 1541 1540 1540
1484 1497 1496 1495 1491 1490 1491 1490 1490 1496 1502 1510 1509 1509 1507 1507 1507 1510 1512 1514 1516 1518 1521 1523 1526 1529 1531 1533 1535 1536 1538 1539 1541 1541 1542 1542 1542 1542 1542 1541 1541 1541 1540 1540
1486 1494 1494 1495 1489 1489 1491 1489 1489 1492 1495 1500 1503 1507 1502 1505 1507 1509 1511 1513 1516 1518 1521 1523 1525 1528 1530 1531 1534 1535 1537 1539 1540 1541 1541 1542 1542 1542 1542 1542 1541 1541 1540 1539
1489 1494 1502 1506 1494 1493 1502 1494 1491 1494 1494 1497 1504 1504 1502 1506 1507 1508 1510 1512 1514 1516 1519 1522 1524 1526 1528 1530 1532 1534 1536 1538 1539 1540 1541 1542 1542 1542 1542 1542 1541 1541 1540 1540
1488 1496 1505 1507 1505 1513 1502 1488 1487 1491 1494 1493 1495 1498 1500 1502 1505 1507 1509 1511 1513 1515 1517 1519 1522 1525 1527 1530 1532 1533 1536 1537 1538 1540 1541 1541 1542 1542 1542 1541 1541 1541 1541 1540
1480 1491 1503 1510 1512 1507 1497 1490 1489 1493 1498 1494 1495 1498 1501 1503 1507 1509 1510 1510 1511 1513 1516 1518 1521 1524 1526 1529 1531 1533 1535 1537 1538 1539 1540 1541 1542 1542 1542 1541 1541 1541 1540 1540
1481 1487 1499 1507 1510 1512 1500 1488 1486 1491 1502 1496 1495 1497 1500 1503 1509 1509 1509 1510 1511 1513 1515 1518 1521 1523 1526 1528 1530 1532 1534 1536 1538 1539 1540 1541 1542 1542 1542 1541 1541 1541 1540 1540
1490 1494 1500 1506 1509 1503 1490 1486 1486 1500 1501 1495 1495 1497 1499 1501 1502 1504 1507 1509 1511 1513 1515 1518 1521 1523 1526 1528 1530 1532 1534 1536 1537 1539 1540 1541 1541 1542 1541 1541 1541 1541 1540 1540
1491 1497 1500 1504 1509 1505 1485 1485 1489 1492 1489 1491 1494 1496 1498 1500 1502 1504 1506 1509 1511 1514 1516 1518 1521 1523 1526 1528 1530 1532 1534 1536 1537 1539 1540 1541 1541 1541 1541 1541 1541 1541 1540 1539
1484 1486 1490 1494 1496 1486 1483 1484 1485 1486 1488 1491 1493 1497 1498 1500 1503 1505 1507 1510 1512 1515 1517 1519 1521 1524 1526 1528 1530 1532 1534 1536 1537 1539 1539 1540 1540 1541 1541 1541 1540 1540 1539 1539
1480 1479 1484 1489 1487 1484 1484 1484 1486 1487 1488 1491 1493 1496 1498 1500 1503 1506 1508 1510 1513 1515 1517 1520 1522 1524 1526 1528 1530 1532 1534 1536 1537 1538 1539 1540 1540 1540 1540 1540 1540 1540 1539 1538
1478 1479 1484 1488 1486 1485 1485 1485 1486 1488 1490 1492 1495 1497 1499 1501 1504 1507 1509 1511 1513 1515 1518 1520 1522 1524 1526 1528 1530 1532 1534 1535 1536 1538 1538 1539 1540 1540 1540 1540 1540 1539 1539 1538
1474 1476 1481 1484 1481 1483 1485 1486 1487 1489 1491 1494 1496 1498 1501 1503 1505 1507 1510 1512 1514 1516 1518 1520 1522 1524 1526 1528 1530 1532 1533 1535 1536 1537 1538 1538 1539 1539 1539 1539 1538 1538 1537 1536